STARLINK-11397

Satellite information

Favourite Embed

Satellite Type and Status

PAYLOADIN ORBIT

Key statistics

Satellite STARLINK-11397 at a glance.

Uptime

329

Days in orbit

Revolutions

≈ 15.7

Per day

Orbit

LEO

Low Earth Orbit

Inclination

43.0

Latest

Satellite identification and parameters

Extended collection of information and parameters for STARLINK-11397.

Object identification

Identified? True

Debris? False

Object name: STARLINK-11397

International designator: 2025-008D

Object number (NORAD): 62590

Object ID (CCSDS): 62590

Country: UNITED STATES OF AMERICA (US)

Current information (Y/N): Y

RCS size: LARGE

Orbital parameters

Period: 91.666 minutes

Inclination: 42.9997 deg

SMA: 6734.413 km

Apoapsis: 357.522 km

Periapsis: 355.033 km

RAAN: 318.584 deg

Eccentricy: 0.00018485

Argument of periapsis: 301.256 deg

Mean anomaly: 58.8127 deg

Mean motion: 15.7091681 rev/day

Mean motion (dot): 0.0016941 rev/day2

B* drag term: 0.0012928245 1/REarth

Two-line elements (TLE)

Creation date: Dec. 8, 2025, 3:46 a.m.

Reference frame: TEME

Reference center: EARTH

Epoch: Dec. 7, 2025, 11:11 p.m. UTC

TLE line 0: 0 STARLINK-11397

TLE line 1: 1 62590U 25008D 25341.96606118 .00169410 00000-0 12928-2 0 9994

TLE line 2: 2 62590 42.9997 318.5840 0001848 301.2560 58.8127 15.70916810 52805

Live tracking on map

Real-time ground track for satellite STARLINK-11397.

In-orbit conjunctions

There are no conjunctions computed for STARLINK-11397, at the moment. Check back to stay up to date, as we update our databases every day.

Go to all conjunctions

Associated space launch

A batch of 21 satellites for the Starlink mega-constellation - SpaceX's project for space-based Internet communication system.

STARLINK-11397 was lifted into orbit during the mission ‘Falcon 9 Block 5 | Starlink Group 12-4’, on board a Falcon 9 space rocket.

The launch took place on Jan. 13, 2025, 4:47 p.m. from Space Launch Complex 40.

For more information about the launch, click the button.

Launch to space Falcon 9 Block 5 | Starlink Group 12-4
Falcon 9 Block 5 | Starlink Group 12-4

Agency: SpaceX

Status: Launch Successful

Launch date: Jan. 13, 2025, 4:47 p.m. UTC

Rocket: Falcon 9

Launch pad: Space Launch Complex 40

Location: Cape Canaveral SFS, FL, USA

...

Latest news about this satellite

News about space launch
Live coverage: SpaceX to launch 21 Starlink satellites on Falcon 9 rocket from Cape Canaveral

The mission comes as SpaceX is preparing for a week that includes a rideshare flight; a dual-manifest, Moon bound missions; and Starship Flight 7. Liftoff from pad 40 at Cape Canaveral Space Force Station is set for 10:08 am EST (1508 UTC).


Newsletter sign-up

Weekly statistics, charts and insights to help you stay on top of the space industry.